Hauptseite
METAR-TAF:

METAR-TAF

Flughäfen :

Militärflugplatz Payerne

Payerne, Schweiz

Breite: 46-49N, Länge: 006-57E, Höhe: 490 m

Beobachtung

Neuester Wetterbericht von vor 32 Minuten, um 03:50 UTC
Windstille
Temperatur 0°C
Luftfeuchtigkeit 93%
Luftdruck 1016 hPa
Sichtweite: 6000 m
Leicht bewölkt in der Höhe von 5600 ft
Geschlossene Wolkendecke in der Höhe von 9200 ft

METAR: LSMP 210350Z AUTO 00000KT 6000NDV FEW056 OVC092 00/M01 Q1016 RMK

Zeit: 05:22 (04:22 UTC)


TAF: fehlend

Wetterbeobachtungen und Prognosen von mehr als 4000 Flughäfen (METAR und TAF Bericht).

Die verfügbaren Stationen werden durch gelbe und rote Markierungen auf der Karte dargestellt.

Führen Sie die Maus auf sie, um den Namen der Station zu sehen.

Darauf klicken, um die Beobachtung von Wetterbeobachtungen und Prognosen zu sehen.

Um die Karte zu ändern : klicken Sie auf den grünen Tasten mit einem schwarzen Kreuz Zum Vergrößern, auf den grünen Button mit einem Gedankenstrich zu verkleinern, oder auf die grünen Pfeile für benachbarte Karten.


METAR-TAF: